N312YH KLAX-KSAN

Flight info

Callsign N312YH
Flight time 0h 31m
Altitude 13000
Route LAXX1 MZB
Aircraft C25C/M-SDE2E3FGHRWXY/LB1

Departure

Time 2026-05-06 23:13
Airport Los Angeles International Airport (KLAX)

Arrival

Time 2026-05-06 23:45
Airport San Diego International Airport (KSAN)
Time Latitude Longitude Altitude Speed Heading
2026-05-06 23:01 33.93362 -118.39382 115 ft 0 kts 271°
2026-05-06 23:10 33.93362 -118.39384 119 ft 2 kts 284°
2026-05-06 23:10 33.93417 -118.39390 119 ft 11 kts
2026-05-06 23:10 33.93496 -118.39355 117 ft 16 kts 57°
2026-05-06 23:11 33.93520 -118.39188 119 ft 27 kts 83°
2026-05-06 23:11 33.93543 -118.38966 119 ft 26 kts 83°
2026-05-06 23:11 33.93565 -118.38749 119 ft 26 kts 83°
2026-05-06 23:11 33.93587 -118.38535 119 ft 24 kts 83°
2026-05-06 23:12 33.93606 -118.38351 119 ft 18 kts 83°
2026-05-06 23:12 33.93637 -118.38281 119 ft 0 kts 24°
2026-05-06 23:12 33.93710 -118.38285 119 ft 15 kts 348°
2026-05-06 23:13 33.93730 -118.38354 119 ft 0 kts 263°
2026-05-06 23:13 33.93723 -118.38425 117 ft 31 kts 262°
2026-05-06 23:13 33.93647 -118.39147 203 ft 137 kts 262°
2026-05-06 23:13 33.93515 -118.40505 1087 ft 175 kts 262°
2026-05-06 23:14 33.93375 -118.42121 2210 ft 210 kts 263°
2026-05-06 23:14 33.93237 -118.43938 3572 ft 222 kts 264°
2026-05-06 23:14 33.92845 -118.45756 4886 ft 238 kts 250°
2026-05-06 23:14 33.92006 -118.47671 4997 ft 270 kts 236°
2026-05-06 23:15 33.90734 -118.49307 4987 ft 266 kts 225°
2026-05-06 23:15 33.89436 -118.50879 4989 ft 263 kts 229°
2026-05-06 23:15 33.88315 -118.52618 4976 ft 263 kts 236°
2026-05-06 23:15 33.87229 -118.54384 4986 ft 262 kts 233°
2026-05-06 23:16 33.86107 -118.56073 4986 ft 261 kts 232°
2026-05-06 23:16 33.84967 -118.57771 4997 ft 260 kts 232°
2026-05-06 23:16 33.83804 -118.59504 5655 ft 274 kts 233°
2026-05-06 23:16 33.82566 -118.61323 6695 ft 286 kts 229°
2026-05-06 23:17 33.80848 -118.62601 7643 ft 287 kts 199°
2026-05-06 23:17 33.79001 -118.63180 7992 ft 277 kts 194°
2026-05-06 23:17 33.77073 -118.63680 7991 ft 294 kts 192°
2026-05-06 23:17 33.74993 -118.64183 7999 ft 308 kts 192°
2026-05-06 23:18 33.72911 -118.64348 7984 ft 294 kts 168°
2026-05-06 23:18 33.71174 -118.63252 7990 ft 278 kts 134°
2026-05-06 23:18 33.70229 -118.61332 7989 ft 263 kts 107°
2026-05-06 23:18 33.69704 -118.59237 8506 ft 268 kts 103°
2026-05-06 23:19 33.69204 -118.56995 9379 ft 287 kts 101°
2026-05-06 23:19 33.68687 -118.54610 10255 ft 302 kts 101°
2026-05-06 23:19 33.68157 -118.52146 10962 ft 320 kts 102°
2026-05-06 23:19 33.67578 -118.49373 11011 ft 356 kts 101°
2026-05-06 23:20 33.66996 -118.46560 11011 ft 339 kts 101°
2026-05-06 23:20 33.66425 -118.43838 11005 ft 341 kts 102°
2026-05-06 23:20 33.65848 -118.41074 11007 ft 339 kts 101°
2026-05-06 23:20 33.65277 -118.38334 11008 ft 337 kts 101°
2026-05-06 23:21 33.64710 -118.35626 11006 ft 334 kts 102°
2026-05-06 23:21 33.63928 -118.33003 10987 ft 337 kts 118°
2026-05-06 23:21 33.62582 -118.30701 10990 ft 336 kts 122°
2026-05-06 23:21 33.61245 -118.28392 10994 ft 336 kts 123°
2026-05-06 23:22 33.59876 -118.26121 10993 ft 335 kts 123°
2026-05-06 23:22 33.58514 -118.23851 11001 ft 335 kts 123°
2026-05-06 23:22 33.57163 -118.21583 11003 ft 334 kts 123°
2026-05-06 23:22 33.55812 -118.19310 11001 ft 334 kts 123°
2026-05-06 23:23 33.54456 -118.17041 11001 ft 335 kts 123°
2026-05-06 23:23 33.53097 -118.14770 10996 ft 334 kts 123°
2026-05-06 23:23 33.51745 -118.12502 10982 ft 337 kts 123°
2026-05-06 23:23 33.50368 -118.10201 10984 ft 342 kts 123°
2026-05-06 23:24 33.48976 -118.07872 10988 ft 346 kts 123°
2026-05-06 23:24 33.47564 -118.05520 10983 ft 349 kts 123°
2026-05-06 23:24 33.46147 -118.03151 10984 ft 351 kts 123°
2026-05-06 23:24 33.44720 -118.00775 10986 ft 352 kts 123°
2026-05-06 23:25 33.43291 -117.98390 10985 ft 351 kts 123°
2026-05-06 23:25 33.41891 -117.96060 10975 ft 347 kts 123°
2026-05-06 23:25 33.40483 -117.93716 10978 ft 345 kts 124°
2026-05-06 23:25 33.39086 -117.91393 10976 ft 343 kts 123°
2026-05-06 23:26 33.37695 -117.89080 10978 ft 342 kts 123°
2026-05-06 23:26 33.36307 -117.86772 10970 ft 341 kts 123°
2026-05-06 23:26 33.34920 -117.84471 10967 ft 341 kts 123°
2026-05-06 23:26 33.33533 -117.82169 10968 ft 340 kts 124°
2026-05-06 23:27 33.32145 -117.79870 10969 ft 340 kts 123°
2026-05-06 23:27 33.30762 -117.77573 10959 ft 340 kts 124°
2026-05-06 23:27 33.29378 -117.75284 10961 ft 339 kts 124°
2026-05-06 23:27 33.28010 -117.73019 10961 ft 339 kts 124°
2026-05-06 23:28 33.26626 -117.70731 10959 ft 339 kts 124°
2026-05-06 23:28 33.25244 -117.68445 10964 ft 339 kts 124°
2026-05-06 23:28 33.23868 -117.66172 10965 ft 344 kts 124°
2026-05-06 23:28 33.22456 -117.63835 10966 ft 349 kts 124°
2026-05-06 23:29 33.21022 -117.61473 10971 ft 352 kts 124°
2026-05-06 23:29 33.19628 -117.59180 10849 ft 324 kts 124°
2026-05-06 23:29 33.18332 -117.57045 10422 ft 306 kts 124°
2026-05-06 23:29 33.17120 -117.55048 10021 ft 290 kts 124°
2026-05-06 23:30 33.15957 -117.53131 9563 ft 280 kts 123°
2026-05-06 23:30 33.14820 -117.51255 9123 ft 279 kts 124°
2026-05-06 23:30 33.13712 -117.49436 8994 ft 264 kts 124°
2026-05-06 23:30 33.12621 -117.47646 8977 ft 271 kts 124°
2026-05-06 23:31 33.11502 -117.45802 8980 ft 277 kts 124°
2026-05-06 23:31 33.10351 -117.43910 8980 ft 285 kts 124°
2026-05-06 23:31 33.09187 -117.42003 8983 ft 290 kts 124°
2026-05-06 23:31 33.07986 -117.40034 8983 ft 285 kts 124°
2026-05-06 23:32 33.06828 -117.38136 8978 ft 285 kts 124°
2026-05-06 23:32 33.05677 -117.36246 8982 ft 292 kts 124°
2026-05-06 23:32 33.04461 -117.34288 8980 ft 295 kts 127°
2026-05-06 23:32 33.03111 -117.32452 8982 ft 293 kts 130°
2026-05-06 23:33 33.01744 -117.30651 8980 ft 293 kts 131°
2026-05-06 23:33 33.00840 -117.29465 8975 ft 292 kts 131°
2026-05-06 23:33 32.99472 -117.27676 8977 ft 291 kts 131°
2026-05-06 23:33 32.97675 -117.25325 8937 ft 280 kts 131°
2026-05-06 23:34 32.96803 -117.24186 8693 ft 272 kts 131°
2026-05-06 23:34 32.95537 -117.22523 8328 ft 270 kts 131°
2026-05-06 23:34 32.94267 -117.20854 7973 ft 274 kts 130°
2026-05-06 23:34 32.92573 -117.18619 7514 ft 275 kts 131°
2026-05-06 23:35 32.91708 -117.17470 7288 ft 275 kts 131°
2026-05-06 23:35 32.90426 -117.15761 6944 ft 278 kts 131°
2026-05-06 23:35 32.89138 -117.14035 6614 ft 280 kts 131°
2026-05-06 23:35 32.87848 -117.12302 6266 ft 276 kts 131°
2026-05-06 23:36 32.86598 -117.10615 5913 ft 268 kts 131°
2026-05-06 23:36 32.85379 -117.08959 5555 ft 264 kts 131°
2026-05-06 23:36 32.84188 -117.07316 5203 ft 261 kts 129°
2026-05-06 23:36 32.83121 -117.05626 5043 ft 255 kts 126°
2026-05-06 23:37 32.82094 -117.03953 4987 ft 247 kts 126°
2026-05-06 23:37 32.81094 -117.02315 4958 ft 241 kts 126°
2026-05-06 23:37 32.80125 -117.00718 4959 ft 235 kts 126°
2026-05-06 23:37 32.79182 -116.99172 4962 ft 230 kts 126°
2026-05-06 23:38 32.78233 -116.97609 4962 ft 236 kts 126°
2026-05-06 23:38 32.77257 -116.96011 4961 ft 241 kts 126°
2026-05-06 23:38 32.76272 -116.94391 4970 ft 243 kts 126°
2026-05-06 23:38 32.75282 -116.92760 4972 ft 244 kts 126°
2026-05-06 23:39 32.74283 -116.91119 4974 ft 246 kts 126°
2026-05-06 23:39 32.73225 -116.89525 4955 ft 246 kts 137°
2026-05-06 23:39 32.71666 -116.88780 4955 ft 245 kts 178°
2026-05-06 23:39 32.70067 -116.89313 4957 ft 239 kts 214°
2026-05-06 23:40 32.69071 -116.90826 4968 ft 233 kts 246°
2026-05-06 23:40 32.68444 -116.92610 4834 ft 237 kts 250°
2026-05-06 23:40 32.67911 -116.94489 4551 ft 243 kts 261°
2026-05-06 23:40 32.67965 -116.96493 4123 ft 247 kts 278°
2026-05-06 23:41 32.68346 -116.98354 3834 ft 217 kts 287°
2026-05-06 23:41 32.68770 -117.00017 3660 ft 201 kts 286°
2026-05-06 23:41 32.69139 -117.01536 3560 ft 189 kts 286°
2026-05-06 23:41 32.69498 -117.03019 3446 ft 186 kts 286°
2026-05-06 23:42 32.69859 -117.04513 3254 ft 189 kts 286°
2026-05-06 23:42 32.70224 -117.06015 3051 ft 190 kts 286°
2026-05-06 23:42 32.70586 -117.07525 2849 ft 189 kts 287°
2026-05-06 23:42 32.70955 -117.09028 2606 ft 190 kts 287°
2026-05-06 23:43 32.71301 -117.10406 2382 ft 155 kts 286°
2026-05-06 23:43 32.71568 -117.11587 2103 ft 144 kts 285°
2026-05-06 23:43 32.71835 -117.12699 1801 ft 139 kts 288°
2026-05-06 23:43 32.72088 -117.13800 1498 ft 137 kts 285°
2026-05-06 23:44 32.72366 -117.14864 1126 ft 135 kts 286°
2026-05-06 23:44 32.72611 -117.15904 697 ft 125 kts 284°
2026-05-06 23:44 32.72831 -117.16851 361 ft 117 kts 288°
2026-05-06 23:44 32.73057 -117.17753 92 ft 108 kts 287°
2026-05-06 23:45 32.73242 -117.18495 18 ft 77 kts 284°
2026-05-06 23:45 32.73324 -117.18790 17 ft 15 kts 306°
2026-05-06 23:45 32.73420 -117.18793 15 ft 16 kts 45°
2026-05-06 23:45 32.73402 -117.18680 16 ft 15 kts 110°
2026-05-06 23:46 32.73364 -117.18525 19 ft 21 kts 106°
2026-05-06 23:46 32.73320 -117.18344 18 ft 25 kts 106°
2026-05-06 23:46 32.73269 -117.18138 17 ft 26 kts 105°
2026-05-06 23:46 32.73310 -117.17967 19 ft 22 kts 17°
2026-05-06 23:47 32.73386 -117.17953 20 ft 5 kts 279°
2026-05-06 23:47 32.73378 -117.17965 20 ft 0 kts 202°